Weather History for Auburn-Lewiston, ME

Change the Weather History Date:

Wednesday, December 12, 2012

  Actual Average Record
Temperature  
Mean Temperature 25 °F -  
Max Temperature 35 °F 36 °F 51 °F (2010)
Min Temperature 15 °F 19 °F 1 °F (2013)
Degree Days  
Heating Degree Days 40    
Moisture  
Dew Point 18 °F    
Average Humidity 77    
Maximum Humidity 100    
Minimum Humidity 48    
Precipitation  
Precipitation 0.00 in - - ()
Sea Level Pressure  
Sea Level Pressure 30.28 in    
Wind  
Wind Speed 1 mph (SW)    
Max Wind Speed 7 mph    
Max Gust Speed -    
Visibility 10 miles    
Events      
Averages and records for this station are not official NWS values.
T = Trace of Precipitation, MM = Missing Value Source: NWS Daily Summary

Daily Weather History Graph

Daily Weather History Graph

Search for Another Location

Airport:

Trip Planner

Search our weather history database for the weather conditions in past years. The results will help you decide how hot, cold, wet, or windy it might be!

Date:

Astronomy

Dec. 12, 2012 Rise Set
Actual Time 7:07 AM EST 4:03 PM EST
Civil Twilight 6:34 AM EST 4:36 PM EST
Nautical Twilight 5:57 AM EST 5:12 PM EST
Astronomical Twilight 5:22 AM EST 5:47 PM EST
Moon 6:07 AM EST (12/12) 3:37 PM EST (12/12)
Length of Visible Light 10h 01m
Length of Day
8h 55m
Waning Crescent, 1% of the Moon is Illuminated
Dec 12
Waning Crescent
Dec 13
New
Dec 20
First Quarter
Dec 28
Full
Jan 4
Last Quarter

Hourly Weather History & Observations

Time (EST) Temp. Windchill Dew Point Humidity Pressure Visibility Wind Dir Wind Speed Gust Speed Precip Events Conditions
12:15 AM 21.2 °F - 17.6 °F 86% 30.11 in 10.0 mi Calm Calm - N/A   Clear
12:35 AM 19.4 °F - 17.6 °F 93% 30.12 in 10.0 mi Calm Calm - N/A   Clear
12:55 AM 19.4 °F - 17.6 °F 93% 30.12 in 10.0 mi Calm Calm - N/A   Clear
1:16 AM 19.4 °F - 17.6 °F 93% 30.13 in 10.0 mi Calm Calm - N/A   Clear
1:35 AM 19.4 °F - 17.6 °F 93% 30.14 in 10.0 mi Calm Calm - N/A   Clear
1:55 AM 19.4 °F - 17.6 °F 93% 30.15 in 10.0 mi Calm Calm - N/A   Clear
2:15 AM 19.4 °F - 17.6 °F 93% 30.16 in 10.0 mi Calm Calm - N/A   Clear
2:35 AM 19.4 °F - 15.8 °F 86% 30.17 in 10.0 mi Calm Calm - N/A   Clear
3:15 AM 19.4 °F - 17.6 °F 93% 30.18 in 10.0 mi Calm Calm - N/A   Clear
3:35 AM 19.4 °F - 19.4 °F 100% 30.18 in 10.0 mi Calm Calm - N/A   Clear
3:55 AM 17.6 °F - 15.8 °F 93% 30.19 in 10.0 mi Calm Calm - N/A   Clear
4:15 AM 17.6 °F - 15.8 °F 93% 30.19 in 10.0 mi Calm Calm - N/A   Clear
4:35 AM 17.6 °F - 14.0 °F 86% 30.19 in 10.0 mi Calm Calm - N/A   Clear
4:55 AM 15.8 °F - 12.2 °F 86% 30.20 in 10.0 mi Calm Calm - N/A   Clear
5:15 AM 17.6 °F - 15.8 °F 93% 30.22 in 10.0 mi Calm Calm - N/A   Clear
5:35 AM 19.4 °F - 15.8 °F 86% 30.23 in 10.0 mi Calm Calm - N/A   Clear
5:55 AM 17.6 °F - 15.8 °F 93% 30.24 in 10.0 mi Calm Calm - N/A   Clear
6:15 AM 15.8 °F - 15.8 °F 100% 30.25 in 10.0 mi Calm Calm - N/A   Clear
6:35 AM 17.6 °F - 15.8 °F 93% 30.26 in 10.0 mi Calm Calm - N/A   Clear
6:55 AM 17.6 °F - 15.8 °F 93% 30.28 in 10.0 mi Calm Calm - N/A   Clear
7:15 AM 15.8 °F - 12.2 °F 86% 30.28 in 10.0 mi Calm Calm - N/A   Clear
7:35 AM 15.8 °F - 14.0 °F 93% 30.28 in 10.0 mi Calm Calm - N/A   Clear
8:15 AM 17.6 °F - 14.0 °F 86% 30.30 in 10.0 mi Calm Calm - N/A   Clear
8:35 AM 19.4 °F - 17.6 °F 93% 30.30 in 10.0 mi Calm Calm - N/A   Clear
8:55 AM 23.0 °F - 19.4 °F 86% 30.31 in 10.0 mi Calm Calm - N/A   Clear
9:15 AM 24.8 °F - 19.4 °F 80% 30.31 in 10.0 mi Calm Calm - N/A   Clear
9:35 AM 26.6 °F - 19.4 °F 74% 30.31 in 10.0 mi Calm Calm - N/A   Clear
9:55 AM 26.6 °F - 19.4 °F 74% 30.32 in 10.0 mi Calm Calm - N/A   Clear
10:15 AM 30.2 °F - 19.4 °F 64% 30.32 in 10.0 mi Calm Calm - N/A   Clear
10:35 AM 30.2 °F - 19.4 °F 64% 30.32 in 10.0 mi Calm Calm - N/A   Clear
10:55 AM 30.2 °F 26.7 °F 19.4 °F 64% 30.32 in 10.0 mi West 3.5 mph - N/A   Clear
11:15 AM 32.0 °F - 19.4 °F 60% 30.31 in 10.0 mi Calm Calm - N/A   Clear
11:35 AM 32.0 °F 27.5 °F 19.4 °F 60% 30.30 in 10.0 mi West 4.6 mph - N/A   Clear
11:55 AM 33.8 °F 30.8 °F 19.4 °F 56% 30.29 in 10.0 mi WNW 3.5 mph - N/A   Clear
12:15 PM 33.8 °F 29.6 °F 19.4 °F 56% 30.29 in 10.0 mi WNW 4.6 mph - N/A   Clear
12:35 PM 33.8 °F 28.6 °F 19.4 °F 56% 30.29 in 10.0 mi WSW 5.8 mph - N/A   Clear
12:55 PM 35.6 °F 30.7 °F 17.6 °F 48% 30.28 in 10.0 mi NW 5.8 mph - N/A   Clear
1:15 PM 35.6 °F 31.7 °F 17.6 °F 48% 30.28 in 10.0 mi SW 4.6 mph - N/A   Clear
1:35 PM 35.6 °F - 19.4 °F 52% 30.28 in 10.0 mi Calm Calm - N/A   Clear
1:55 PM 35.6 °F 32.8 °F 17.6 °F 48% 30.28 in 10.0 mi WSW 3.5 mph - N/A   Clear
2:15 PM 35.6 °F 31.7 °F 17.6 °F 48% 30.29 in 10.0 mi West 4.6 mph - N/A   Clear
2:35 PM 35.6 °F 30.7 °F 17.6 °F 48% 30.29 in 10.0 mi WSW 5.8 mph - N/A   Clear
2:55 PM 35.6 °F 30.7 °F 17.6 °F 48% 30.30 in 10.0 mi WSW 5.8 mph - N/A   Clear
3:15 PM 35.6 °F 30.7 °F 17.6 °F 48% 30.31 in 10.0 mi WSW 5.8 mph - N/A   Clear
3:35 PM 35.6 °F - 17.6 °F 48% 30.32 in 10.0 mi Calm Calm - N/A   Clear
3:55 PM 33.8 °F - 17.6 °F 52% 30.32 in 10.0 mi Calm Calm - N/A   Clear
4:15 PM 30.2 °F - 19.4 °F 64% 30.33 in 10.0 mi Calm Calm - N/A   Clear
4:35 PM 33.8 °F - 19.4 °F 56% 30.34 in 10.0 mi Calm Calm - N/A   Clear
4:55 PM 30.2 °F 26.7 °F 19.4 °F 64% 30.34 in 10.0 mi South 3.5 mph - N/A   Scattered Clouds
5:15 PM 26.6 °F - 19.4 °F 74% 30.35 in 10.0 mi Calm Calm - N/A   Scattered Clouds
5:35 PM 28.4 °F - 19.4 °F 69% 30.35 in 10.0 mi Calm Calm - N/A   Mostly Cloudy
5:55 PM 28.4 °F - 19.4 °F 69% 30.35 in 10.0 mi Calm Calm - N/A   Scattered Clouds
6:15 PM 26.6 °F - 19.4 °F 74% 30.35 in 10.0 mi Calm Calm - N/A   Clear
6:35 PM 26.6 °F 22.6 °F 19.4 °F 74% 30.35 in 10.0 mi South 3.5 mph - N/A   Clear
7:15 PM 24.8 °F - 17.6 °F 74% 30.36 in 10.0 mi Calm Calm - N/A   Clear
7:55 PM 26.6 °F 19.1 °F 19.4 °F 74% 30.36 in 10.0 mi SSE 6.9 mph - N/A   Clear
8:15 PM 23.0 °F 18.4 °F 17.6 °F 80% 30.36 in 10.0 mi SSE 3.5 mph - N/A   Clear
8:35 PM 21.2 °F - 19.4 °F 93% 30.36 in 10.0 mi Calm Calm - N/A   Clear
8:55 PM 24.8 °F - 19.4 °F 80% 30.36 in 10.0 mi Calm Calm - N/A   Clear
9:35 PM 23.0 °F - 19.4 °F 86% 30.37 in 10.0 mi Calm Calm - N/A   Clear
9:55 PM 21.2 °F - 19.4 °F 93% 30.38 in 10.0 mi Calm Calm - N/A   Clear
10:15 PM 21.2 °F 16.4 °F 19.4 °F 93% 30.38 in 10.0 mi South 3.5 mph - N/A   Clear
10:35 PM 19.4 °F - 17.6 °F 93% 30.37 in 10.0 mi Calm Calm - N/A   Clear
10:55 PM 19.4 °F - 17.6 °F 93% 30.37 in 10.0 mi Calm Calm - N/A   Clear
11:15 PM 21.2 °F - 17.6 °F 86% 30.37 in 10.0 mi Calm Calm - N/A   Clear
11:35 PM 19.4 °F - 17.6 °F 93% 30.37 in 10.0 mi Calm Calm - N/A   Clear
11:55 PM 19.4 °F - 15.8 °F 86% 30.38 in 10.0 mi Calm Calm - N/A   Clear